Regional Weather Roundup
Issued by NWS Upton, NY

Current Version | Previous Version | Graphics & Text | Print | Product List | Glossary Off
Versions: 1 2 3 4 5 6 7 8 9 10 11 12 13 14 15 16 17 18 19 20 21 22 23 24 25 26 27 28 29 30 31 32 33 34 35 36 37 38 39 40 41 42 43 44 45 46 47 48 49 50

000
ASUS41 KOKX 300005
RWROKX

REGIONAL WEATHER ROUNDUP
NATIONAL WEATHER SERVICE NEW YORK NY
800 PM EDT MON SEP 29 2014

NOTE: "FAIR" INDICATES FEW OR NO CLOUDS BELOW 12,000 FEET WITH NO
SIGNIFICANT WEATHER AND/OR OBSTRUCTIONS TO VISIBILITY.

NYZ071-072-176-178-NJZ106-104-300100-
NEW YORK CITY METRO AREA


CITY           SKY/WX    TMP DP  RH WIND       PRES   REMARKS
CENTRAL PARK   CLOUDY    72  59  63 VRB5      29.95R
LAGUARDIA APRT CLOUDY    74  61  63 S6        29.91S
KENNEDY INTL   CLOUDY    71  63  75 SE3       29.93R
NEWARK/LIBERTY CLOUDY    73  60  63 W10G23    29.92R
BRNX BOT. GARD   N/A     70  59  68 E1        29.94R
TETERBORO      CLOUDY    72  60  66 W6        29.91R
$$

NYZ177-179-078>081-300100-
LONG ISLAND NEW YORK

CITY           SKY/WX    TMP DP  RH WIND       PRES   REMARKS
FARMINGDALE    CLOUDY    69  65  86 S8        29.94R
ISLIP          CLOUDY    68  65  90 S5        29.92R
SHIRLEY        CLOUDY    67  65  93 CALM      29.93F FOG
WESTHAMPTON    CLOUDY    67  64  90 SE3       29.94F
MONTAUK POINT    N/A     68  66  93 VRB5      29.96R
$$

NYZ052-065-067-300100-
HUDSON VALLEY

CITY           SKY/WX    TMP DP  RH WIND       PRES   REMARKS
WHITE PLAINS   CLOUDY    67  59  75 CALM      29.93R
NEWBURGH       MOCLDY    70  63  78 CALM      29.93S
MONTGOMERY     CLOUDY    66  61  84 CALM      29.91S
POUGHKEEPSIE   CLOUDY    67  62  84 CALM      29.90S
ALBANY         MOCLDY    61  58  90 CALM      29.93S
$$

NJZ001-105-106-008-010-013-015-019>022-104-300100-
NEW JERSEY

CITY           SKY/WX    TMP DP  RH WIND       PRES   REMARKS
NEWARK/LIBERTY CLOUDY    73  60  63 W10G23    29.92R
TETERBORO      CLOUDY    72  60  66 W6        29.91R
CALDWELL       CLOUDY    70  59  68 CALM      29.93R
MORRISTOWN     PTCLDY    72  63  73 W6        29.93R
SOMERVILLE     CLOUDY    68  60  75 NW3       29.91R
LINDEN         FAIR      76  63  64 W8        29.94S
SUSSEX         CLOUDY    67  61  81 CALM      29.92S
ANDOVER          N/A     64  62  93 CALM      29.93S
TRENTON        LGT RAIN  67  61  81 SW5       29.93S
MILLVILLE      LGT RAIN  67  65  93 CALM      29.95R
ATLANTIC CITY  CLOUDY    69  63  81 S6        29.95R
WRIGHTSTOWN    LGT RAIN  67  65  93 SW7       29.92R
TOMS RIVER     CLOUDY    66  64  94 CALM      29.94R
BELMAR         CLOUDY    70  61  73 SW5       29.94R
$$

PAZ047>061-062-071-300100-
EASTERN PENNSYLVANIA

CITY           SKY/WX    TMP DP  RH WIND       PRES   REMARKS
PHILADELPHIA   LGT RAIN  69  64  84 W9        29.95R
ALLENTOWN      CLOUDY    71  59  65 S5        29.93R
SCRANTON       CLOUDY    65  56  72 CALM      29.92S
$$

CTZ002-004>006-009-010-012-RIZ004-006-007-MAZ004-011-015-300100-
SOUTHERN NEW ENGLAND
 IN CT

CITY           SKY/WX    TMP DP  RH WIND       PRES   REMARKS
BRADLEY INTL   CLOUDY    68  63  84 NE5       29.93R
HARTFORD       CLOUDY    67  63  87 VRB5      29.91F
DANBURY        CLOUDY    67  62  84 S5        29.94R
WTRBRY/OXFORD  PTCLDY    66  59  77 CALM      29.94S
BRIDGEPORT     CLOUDY    70  66  87 S3        29.93R
MERIDEN        CLOUDY    67  62  84 CALM      29.93R
NEW HAVEN      CLOUDY    71  63  75 E7        29.92S
CHESTER        FAIR      66  64  94 S3        29.95R
GROTON         CLOUDY    66  65  96 E7        29.93S
WILLIMANTIC    CLOUDY    68  65  90 NE3       29.95R

 IN RI

CITY           SKY/WX    TMP DP  RH WIND       PRES   REMARKS
PROVIDENCE     CLOUDY    65  60  84 NE13      29.97R
BLOCK ISLAND   CLOUDY    66  63  88 SE5       29.94F
WESTERLY       CLOUDY    66  65  96 E3        29.95S

 IN MA

CITY           SKY/WX    TMP DP  RH WIND       PRES   REMARKS
BOSTON         CLOUDY    60  57  89 N14       30.01R FOG
WORCESTER      CLOUDY    59  57  93 NE7G20    30.01R FOG
WESTFIELD      CLOUDY    67  63  87 N5        29.94R
PROVINCETOWN   CLOUDY    63  59  88 NE9       29.98S VSB 1/2
NANTUCKET      CLOUDY    63  61  93 CALM      29.96S FOG
$$

ANZ330-335-338-340-345-350-353-355-300100-
COASTAL MARINE OBSERVATIONS


STATION/POSITION TIME  SKY/WX   TEMP    WIND        PRES    VSBY  WAVE
                                AIR SEA DIR/SP/G                  HT/PER
                 (UTC)          (F)     (DEG/KT/KT) (MB)    (MI)  (FT/S)
NY HARB ENTRANCE 2300            70 69  180/  6/  8 1013.3          2/ 8
4S FIRE IS       0000               69                N/A           2/ 8
20S FIRE ISLAND  0000            68 68  200/ 10/ 12 1013.3          2/ 7
23SW MTP         0000                                 N/A           2/ 7
HUDSON CANYON    0000            69 70  220/  8/  8 1013.9          2/ 8
EXECUTION ROCKS  0000            71 69  200/  2/  4   N/A
WESTERN LI SOUND 2300            71     140/  4/  6   N/A           0
CENTRAL LI SOUND 2300            69 69  160/  8/ 12   N/A           0
EASTERN LI SOUND 2300            68 67   70/  2/  6   N/A
ROBBINS REEF     0000            73     250/ 13/ 15 1011.8
$$


>>>>>>>>>>>>>>>>>>>>>>>>>>>> KEY <<<<<<<<<<<<<<<<<<<<<<<<<<<
>                                                          <
>     SKY/WX - SKY CONDITION/PRESENT WEATHER               <
>     TMP    - TEMPERATURE IN FAHRENHEIT                   <
>     DP     - DEWPOINT IN FAHRENHEIT                      <
>     RH     - RELATIVE HUMIDITY IN PERCENT                <
>     WIND   - DIRECTION AND SPEED IN MPH                  <
>     PRES   - MEAN SEA LEVEL PRESSURE IN INCHES OF HG     <
>     WCI    - WIND CHILL INDEX                            <
>     VSB    - VISIBILITY IN MILES                         <
>     HX     - HEAT INDEX                                  <
>     TC     - TEMPERATURE IN CELSIUS                      <
>     VRB    - VARIABLE WIND DIRECTION                     <
>                                                          <
>>>>>>>>>>>>>>>>>>>>>>>>>>>> KEY <<<<<<<<<<<<<<<<<<<<<<<<<<<





USA.gov is the U.S. government's official web portal to all federal, state and local government web resources and services.